Weather History for Doha, Qatar

Change the Weather History Date:

Tuesday, January 31, 2012

  Actual Average Record
Temperature  
Mean Temperature 64 °F -  
Max Temperature 71 °F 73 °F 78 °F (1999)
Min Temperature 57 °F 57 °F 55 °F (2000)
Degree Days  
Heating Degree Days 1    
Growing Degree Days 14 (Base 50)    
Moisture  
Dew Point 55 °F    
Average Humidity 70    
Maximum Humidity 83    
Minimum Humidity 54    
Precipitation  
Precipitation 0.00 in 0.02 in - ()
Sea Level Pressure  
Sea Level Pressure 30.05 in    
Wind  
Wind Speed 7 mph ()    
Max Wind Speed 16 mph    
Max Gust Speed -    
Visibility 8.8 miles    
Events      
Averages and records for this station are not official NWS values.
T = Trace of Precipitation, MM = Missing Value Source: Averaged Metar Reports

Daily Weather History Graph

Daily Weather History Graph

Search for Another Location

Airport:

Trip Planner

Search our weather history database for the weather conditions in past years. The results will help you decide how hot, cold, wet, or windy it might be!

Date:

Astronomy

Jan. 31, 2012 Rise Set
Actual Time 6:17 AM AST 5:16 PM AST
Civil Twilight 5:53 AM AST 5:40 PM AST
Nautical Twilight 5:26 AM AST 6:08 PM AST
Astronomical Twilight 4:58 AM AST 6:35 PM AST
Moon 10:56 AM AST (1/31) No Moon Set
Length of Visible Light 11h 47m
Length of Day
10h 59m
First Quarter, 52% of the Moon is Illuminated
Jan 31
First Quarter
Feb 8
Full
Feb 14
Last Quarter
Feb 22
New
Mar 1
First Quarter

Hourly Weather History & Observations

Time (AST) Temp. Dew Point Humidity Pressure Visibility Wind Dir Wind Speed Gust Speed Precip Events Conditions
12:00 AM - - N/A% 30.12 in - NNW 3.5 mph - N/A   Clear
12:30 AM 60.8 °F 46.4 °F 59% 30.09 in - North 3.5 mph - N/A   Clear
1:00 AM 60.8 °F 48.2 °F 63% 30.09 in - Calm Calm - N/A   Clear
1:30 AM 59.0 °F 48.2 °F 67% 30.09 in - Variable 2.3 mph - N/A   Clear
2:00 AM 59.0 °F 46.4 °F 63% 30.09 in - Variable 2.3 mph - N/A   Clear
2:30 AM 59.0 °F 46.4 °F 63% 30.09 in - Variable 1.2 mph - N/A   Clear
3:00 AM 58 °F 46 °F 54% 30.10 in 7 mi North 3.5 mph - -   Clear
3:00 AM 59.0 °F 46.4 °F 63% 30.09 in - North 3.5 mph - N/A   Clear
3:30 AM 59.0 °F 48.2 °F 67% 30.09 in - North 5.8 mph - N/A   Clear
4:00 AM 59.0 °F 48.2 °F 67% 30.09 in - North 4.6 mph - N/A   Clear
4:30 AM 59.0 °F 50.0 °F 72% 30.09 in - Variable 2.3 mph - N/A   Clear
5:00 AM 59.0 °F 51.8 °F 77% 30.09 in - North 4.6 mph - N/A   Clear
5:30 AM 59.0 °F 53.6 °F 82% 30.09 in - NNE 3.5 mph - N/A   Clear
6:00 AM 59.0 °F 53.6 °F 82% 30.09 in - NE 3.5 mph - N/A   Clear
6:30 AM 59.0 °F 51.8 °F 77% 30.09 in - East 3.5 mph - N/A   Clear
7:00 AM 60.8 °F 53.6 °F 77% 30.09 in - East 4.6 mph - N/A   Clear
7:30 AM 64.4 °F 53.6 °F 68% 30.09 in - East 8.1 mph - N/A   Clear
8:00 AM 66.2 °F 53.6 °F 64% 30.09 in - East 9.2 mph - N/A   Clear
8:30 AM 66.2 °F 53.6 °F 64% 30.09 in - East 9.2 mph - N/A   Clear
9:00 AM 67 °F 54 °F 54% 30.12 in 10 mi ESE 9.2 mph - -   Scattered Clouds
9:00 AM 66.2 °F 53.6 °F 64% 30.12 in - ESE 9.2 mph - N/A   Clear
9:30 AM 68.0 °F 53.6 °F 60% 30.12 in - ESE 10.4 mph - N/A   Clear
10:00 AM 68.0 °F 55.4 °F 64% 30.09 in - ESE 12.7 mph - N/A   Clear
10:30 AM 69.8 °F 55.4 °F 60% 30.09 in - ESE 13.8 mph - N/A   Clear
11:00 AM 69.8 °F 55.4 °F 60% 30.09 in - ESE 13.8 mph - N/A   Clear
11:30 AM 69.8 °F 55.4 °F 60% 30.06 in - ESE 15.0 mph - N/A   Clear
12:00 PM 71.6 °F 55.4 °F 57% 30.06 in - SE 15.0 mph - N/A   Clear
12:30 PM 69.8 °F 53.6 °F 56% 30.04 in - SE 16.1 mph - N/A   Clear
1:00 PM 71.6 °F 55.4 °F 57% 30.04 in - SE 15.0 mph - N/A   Clear
1:30 PM 69.8 °F 57.2 °F 64% 30.04 in - ESE 12.7 mph - N/A   Clear
2:00 PM 69.8 °F 59.0 °F 68% 30.01 in - ESE 13.8 mph - N/A   Clear
2:30 PM 69.8 °F 59.0 °F 68% 30.01 in - East 11.5 mph - N/A   Clear
3:00 PM 69 °F 60 °F 64% 30.01 in 9 mi East 11.5 mph - -   Scattered Clouds
3:00 PM 69.8 °F 59.0 °F 68% 30.01 in - East 11.5 mph - N/A   Clear
3:30 PM 68.0 °F 60.8 °F 78% 30.01 in - East 11.5 mph - N/A   Clear
4:00 PM 68.0 °F 60.8 °F 78% 29.98 in - East 12.7 mph - N/A   Clear
4:30 PM 68.0 °F 60.8 °F 78% 29.98 in - East 11.5 mph - N/A   Clear
5:00 PM 66.2 °F 60.8 °F 83% 29.98 in - East 11.5 mph - N/A   Clear
5:30 PM 66.2 °F 59.0 °F 78% 29.98 in - East 10.4 mph - N/A   Clear
6:00 PM 66.2 °F 60.8 °F 83% 29.98 in - East 11.5 mph - N/A   Clear
6:30 PM 66.2 °F 59.0 °F 78% 30.01 in - East 11.5 mph - N/A   Clear
7:00 PM 66.2 °F 59.0 °F 78% 30.01 in - East 11.5 mph - N/A   Clear
7:30 PM 66.2 °F 59.0 °F 78% 30.01 in - East 11.5 mph - N/A   Clear
8:00 PM 66.2 °F 59.0 °F 78% - - ESE 12.7 mph - N/A   Clear
8:30 PM 66.2 °F 59.0 °F 78% 29.98 in - ESE 11.5 mph - N/A   Clear
9:00 PM 66 °F 59 °F 71% 30.00 in 9 mi ESE 11.5 mph - -   Scattered Clouds
9:00 PM 66.2 °F 59.0 °F 78% 29.98 in - ESE 11.5 mph - N/A   Clear
9:30 PM 66.2 °F 60.8 °F 83% 29.98 in - ESE 11.5 mph - N/A   Clear
10:00 PM 66.2 °F 59.0 °F 78% 29.98 in - ESE 12.7 mph - N/A   Clear
10:30 PM 66.2 °F 59.0 °F 78% 29.98 in - ESE 12.7 mph - N/A   Clear
11:00 PM 66.2 °F 59.0 °F 78% 29.98 in - ESE 12.7 mph - N/A   Clear
11:30 PM 66.2 °F 59.0 °F 78% 29.98 in - ESE 12.7 mph - N/A   Clear